Location: ?????????
(44.2517°N, 135.2292°E)
Time: 11:18:14
(UTC+00:00)

Cosmos 2061 Rocket - Pass Details

Date: 19 May 2025
Orbit: 965 x 1011 km, 82.9° (Epoch: 14 June)

Event Time Altitude Azimuth Distance (km) Brightness Sun altitude
Rises 16:52:57 0° 346° (NNW) 3,752 7.8 -20.4°
Reaches altitude 10° 16:55:35 10° 341° (NNW) 2,794 6.9 -20.2°
Maximum altitude 17:01:40 47° 270° (W) 1,307 4.4 -19.6°
Enters shadow 17:04:04 33° 221° (SW) 1,625 4.6 -19.4°
